Погода в Лахоре

Пакистан     31°31′07″N   74°18′11″E
темп.,
°C
ветер,
м/с
пор.,
м/с
влажн.,
%
обл.,
%
осадки,
мм/ч
давл.,
гПа
погр.,
м
28 ноября, вс
вс2823:00+18в23270 0.0 101852
02:00+16в23320 0.0 101853
05:00+15в22360 0.0 101842
08:00+17в12345 0.0 102087
11:00+23ссв11230 0.0 1020494
14:00+25ссз23180 0.0 10161207
17:00+22ссз22230 0.0 101621
20:00+20с11270 0.0 101712
29 ноября, пн
пн2923:00+18ссв11300 0.0 101811
02:00+17ссв22320 0.0 101716
05:00+16с22340 0.0 101828
08:00+17ссз23320 0.0 101995
11:00+23сз23215 0.0 1020594
14:00+26сз34160 0.0 10161433
17:00+22сз34200 0.0 101677
20:00+20сз232415 0.0 101746
30 ноября, вт
вт3023:00+18сз232651 0.0 101759
02:00+16ссз22305 0.0 101740
05:00+15сз22330 0.0 101631
08:00+17сз23310 0.0 101798
11:00+23зсз33205 0.0 1017611
14:00+26зсз331530 0.0 10141359
17:00+22сз11200 0.0 101411
20:00+20всв1123100 0.0 101611
1 декабря, ср
ср123:00+18юв1126100 0.0 101613
02:00+17св1127100 0.0 101611
05:00+16в1129100 0.0 101619
08:00+17в1129100 0.0 101840
11:00+22в0021100 0.0 1018451
14:00+24с1218100 0.0 1015896
17:00+21св1123100 0.0 101611
20:00+19всв1125100 0.0 101711
2 декабря, чт
чт223:00+18вюв0028100 0.0 101711
02:00+17ссв1130100 0.0 101611
05:00+16ссв1131100 0.0 101621
08:00+17ссв123099 0.0 101876
11:00+21с1221100 0.0 1018457
14:00+23ююв0118100 0.0 1016700
17:00+21св0021100 0.0 101513
20:00+18юв222452 0.0 101736